Time,TemperatureF,DewpointF,PressureIn,WindDirection,WindDirectionDegrees,WindSpeedMPH,WindSpeedGustMPH,Humidity,HourlyPrecipIn,Conditions,Clouds,dailyrainin,SoftwareType,DateUTC
2013-01-10 00:00:00,35.8,35.5,30.02,SE,142,0.0,0.0,99,0.00,,,1.04,Wunderground v.1.15,2013-01-10 08:00:00,
2013-01-10 00:10:00,35.7,35.4,30.02,ESE,121,1.0,1.0,99,0.00,,,0.01,Wunderground v.1.15,2013-01-10 08:10:00,
2013-01-10 00:15:00,35.6,35.3,30.02,ESE,120,1.0,1.0,99,0.00,,,0.01,Wunderground v.1.15,2013-01-10 08:15:00,
2013-01-10 00:25:00,35.2,34.9,30.03,ESE,120,0.0,1.0,99,0.00,,,0.01,Wunderground v.1.15,2013-01-10 08:25:00,
2013-01-10 00:35:00,35.1,34.8,30.03,ESE,115,0.0,0.0,99,0.00,,,0.01,Wunderground v.1.15,2013-01-10 08:35:00,
2013-01-10 00:45:00,35.0,34.7,30.03,ESE,115,0.0,0.0,99,0.00,,,0.01,Wunderground v.1.15,2013-01-10 08:45:00,
2013-01-10 00:50:00,34.8,34.5,30.03,ESE,115,0.0,0.0,99,0.00,,,0.01,Wunderground v.1.15,2013-01-10 08:50:00,
2013-01-10 00:55:00,34.7,34.4,30.03,ESE,115,0.0,0.0,99,0.00,,,0.01,Wunderground v.1.15,2013-01-10 08:55:00,
2013-01-10 01:00:00,34.7,34.4,30.03,ESE,115,0.0,0.0,99,0.00,,,0.01,Wunderground v.1.15,2013-01-10 09:00:00,
2013-01-10 01:10:00,34.7,34.4,30.04,NW,315,0.0,1.0,99,0.00,,,0.01,Wunderground v.1.15,2013-01-10 09:10:00,
2013-01-10 01:15:00,34.7,34.4,30.04,NW,315,0.0,1.0,99,0.00,,,0.01,Wunderground v.1.15,2013-01-10 09:15:00,
2013-01-10 01:25:00,34.9,34.6,30.03,SE,130,1.0,2.0,99,0.00,,,0.02,Wunderground v.1.15,2013-01-10 09:25:00,
2013-01-10 01:35:00,35.1,34.8,30.04,SSE,161,1.0,2.0,99,0.00,,,0.02,Wunderground v.1.15,2013-01-10 09:35:00,
2013-01-10 01:45:00,35.2,34.9,30.04,SE,125,1.0,1.0,99,0.00,,,0.02,Wunderground v.1.15,2013-01-10 09:45:00,
2013-01-10 01:50:00,35.3,35.0,30.05,SE,125,1.0,1.0,99,0.00,,,0.02,Wunderground v.1.15,2013-01-10 09:50:00,
2013-01-10 01:55:00,35.3,35.0,30.04,ESE,119,0.0,1.0,99,0.00,,,0.03,Wunderground v.1.15,2013-01-10 09:55:00,
2013-01-10 02:00:00,35.4,35.1,30.04,SE,134,1.0,1.0,99,0.00,,,0.03,Wunderground v.1.15,2013-01-10 10:00:00,
2013-01-10 02:10:00,35.3,35.0,30.05,ESE,121,1.0,1.0,99,0.00,,,0.03,Wunderground v.1.15,2013-01-10 10:10:00,
2013-01-10 02:20:00,35.3,35.0,30.05,NNE,31,0.0,0.0,99,0.00,,,0.03,Wunderground v.1.15,2013-01-10 10:20:00,
2013-01-10 02:25:00,35.2,34.9,30.06,East,82,0.0,0.0,99,0.00,,,0.03,Wunderground v.1.15,2013-01-10 10:25:00,
2013-01-10 02:35:00,35.1,34.8,30.06,SE,138,0.0,1.0,99,0.00,,,0.03,Wunderground v.1.15,2013-01-10 10:35:00,
2013-01-10 02:45:00,34.9,34.6,30.06,SE,138,0.0,0.0,99,0.00,,,0.04,Wunderground v.1.15,2013-01-10 10:45:00,
2013-01-10 02:50:00,34.7,34.4,30.06,SE,138,0.0,0.0,99,0.00,,,0.04,Wunderground v.1.15,2013-01-10 10:50:00,
2013-01-10 03:00:00,34.6,34.3,30.07,West,259,0.0,0.0,99,0.15,,,0.06,Wunderground v.1.15,2013-01-10 11:00:00,
2013-01-10 03:10:00,34.7,34.4,30.07,West,268,0.0,0.0,99,0.06,,,0.07,Wunderground v.1.15,2013-01-10 11:10:00,
2013-01-10 03:20:00,34.7,34.4,30.06,SE,127,1.0,1.0,99,0.06,,,0.07,Wunderground v.1.15,2013-01-10 11:20:00,
2013-01-10 03:25:00,34.7,34.4,30.06,SE,141,1.0,1.0,99,0.04,,,0.07,Wunderground v.1.15,2013-01-10 11:25:00,
2013-01-10 03:35:00,34.4,34.1,30.06,SSE,156,1.0,1.0,99,0.00,,,0.07,Wunderground v.1.15,2013-01-10 11:35:00,
2013-01-10 03:45:00,34.1,33.8,30.07,SSE,156,0.0,0.0,99,0.00,,,0.07,Wunderground v.1.15,2013-01-10 11:45:00,
2013-01-10 03:50:00,34.0,33.7,30.07,SSE,156,0.0,0.0,99,0.00,,,0.07,Wunderground v.1.15,2013-01-10 11:50:00,
2013-01-10 03:55:00,34.0,33.7,30.07,SSE,156,0.0,0.0,99,0.00,,,0.08,Wunderground v.1.15,2013-01-10 11:55:00,
2013-01-10 04:00:00,34.1,33.8,30.07,SSE,156,0.0,0.0,99,0.00,,,0.08,Wunderground v.1.15,2013-01-10 12:00:00,
2013-01-10 04:10:00,34.1,33.8,30.07,WNW,303,0.0,0.0,99,0.08,,,0.10,Wunderground v.1.15,2013-01-10 12:10:00,
2013-01-10 04:20:00,34.2,33.9,30.07,SE,141,0.0,2.0,99,0.06,,,0.10,Wunderground v.1.15,2013-01-10 12:20:00,
2013-01-10 04:30:00,34.2,33.9,30.07,SE,134,1.0,1.0,99,0.00,,,0.10,Wunderground v.1.15,2013-01-10 12:30:00,
2013-01-10 04:35:00,34.2,33.9,30.07,SE,134,0.0,1.0,99,0.00,,,0.10,Wunderground v.1.15,2013-01-10 12:35:00,
2013-01-10 04:45:00,34.1,33.8,30.07,SE,127,0.0,2.0,99,0.00,,,0.10,Wunderground v.1.15,2013-01-10 12:45:00,
2013-01-10 04:50:00,34.1,33.8,30.07,SE,127,1.0,1.0,99,0.00,,,0.10,Wunderground v.1.15,2013-01-10 12:50:00,
2013-01-10 05:00:00,34.3,34.0,30.08,NE,37,0.0,0.0,99,0.00,,,0.10,Wunderground v.1.15,2013-01-10 13:00:00,
2013-01-10 05:10:00,34.3,34.0,30.08,ESE,114,0.0,0.0,99,0.00,,,0.11,Wunderground v.1.15,2013-01-10 13:10:00,
2013-01-10 05:20:00,34.2,33.9,30.08,ESE,114,0.0,0.0,99,0.07,,,0.12,Wunderground v.1.15,2013-01-10 13:20:00,
2013-01-10 05:30:00,34.2,33.9,30.08,SE,133,1.0,3.0,99,0.00,,,0.12,Wunderground v.1.15,2013-01-10 13:30:00,
2013-01-10 05:40:00,34.3,34.0,30.08,SE,129,1.0,1.0,99,0.00,,,0.13,Wunderground v.1.15,2013-01-10 13:40:00,
2013-01-10 05:45:00,34.3,34.0,30.08,SE,129,0.0,1.0,99,0.00,,,0.13,Wunderground v.1.15,2013-01-10 13:45:00,
2013-01-10 05:55:00,34.2,33.9,30.08,SE,127,0.0,1.0,99,0.00,,,0.13,Wunderground v.1.15,2013-01-10 13:55:00,
2013-01-10 06:00:00,34.0,33.7,30.09,SSE,152,0.0,0.0,99,0.00,,,0.13,Wunderground v.1.15,2013-01-10 14:00:00,
2013-01-10 06:10:00,33.7,33.4,30.09,SSW,206,0.0,0.0,99,0.00,,,0.13,Wunderground v.1.15,2013-01-10 14:10:00,
2013-01-10 06:20:00,33.5,33.2,30.10,SSW,206,0.0,0.0,99,0.00,,,0.13,Wunderground v.1.15,2013-01-10 14:20:00,
2013-01-10 06:30:00,33.6,33.3,30.10,SSW,206,0.0,0.0,99,0.00,,,0.13,Wunderground v.1.15,2013-01-10 14:30:00,
2013-01-10 06:40:00,33.7,33.4,30.10,SSW,206,0.0,0.0,99,0.00,,,0.13,Wunderground v.1.15,2013-01-10 14:40:00,
2013-01-10 06:45:00,33.8,33.5,30.10,SSW,206,0.0,0.0,99,0.00,,,0.13,Wunderground v.1.15,2013-01-10 14:45:00,
2013-01-10 06:55:00,33.9,33.6,30.10,WNW,290,0.0,0.0,99,0.00,,,0.14,Wunderground v.1.15,2013-01-10 14:55:00,
2013-01-10 07:00:00,34.0,33.7,30.10,SSE,150,0.0,0.0,99,0.09,,,0.15,Wunderground v.1.15,2013-01-10 15:00:00,
2013-01-10 07:10:00,34.0,33.7,30.11,SSE,150,0.0,0.0,99,0.05,,,0.15,Wunderground v.1.15,2013-01-10 15:10:00,
2013-01-10 07:15:00,34.0,33.7,30.10,SSE,150,0.0,0.0,99,0.04,,,0.16,Wunderground v.1.15,2013-01-10 15:15:00,
2013-01-10 07:25:00,34.1,33.8,30.11,SSW,195,0.0,0.0,99,0.04,,,0.16,Wunderground v.1.15,2013-01-10 15:25:00,
2013-01-10 07:35:00,34.1,33.8,30.11,WSW,241,0.0,0.0,99,0.00,,,0.16,Wunderground v.1.15,2013-01-10 15:35:00,
2013-01-10 07:45:00,34.1,33.8,30.12,WSW,241,0.0,0.0,99,0.00,,,0.17,Wunderground v.1.15,2013-01-10 15:45:00,
2013-01-10 07:50:00,34.2,33.9,30.11,WSW,241,0.0,0.0,99,0.00,,,0.17,Wunderground v.1.15,2013-01-10 15:50:00,
2013-01-10 08:00:00,34.3,34.0,30.12,WSW,241,0.0,0.0,99,0.04,,,0.18,Wunderground v.1.15,2013-01-10 16:00:00,
2013-01-10 08:10:00,34.3,34.0,30.12,WSW,241,0.0,0.0,99,0.14,,,0.20,Wunderground v.1.15,2013-01-10 16:10:00,
2013-01-10 08:15:00,34.5,34.2,30.12,WSW,241,0.0,0.0,99,0.10,,,0.20,Wunderground v.1.15,2013-01-10 16:15:00,
2013-01-10 08:25:00,34.8,34.5,30.13,WSW,241,0.0,0.0,99,0.09,,,0.21,Wunderground v.1.15,2013-01-10 16:25:00,
2013-01-10 08:35:00,34.8,34.5,30.14,NW,318,0.0,0.0,99,0.10,,,0.23,Wunderground v.1.15,2013-01-10 16:35:00,
2013-01-10 08:45:00,34.9,34.6,30.13,NW,318,0.0,0.0,99,0.05,,,0.24,Wunderground v.1.15,2013-01-10 16:45:00,
2013-01-10 08:50:00,35.1,34.8,30.13,SW,233,0.0,0.0,99,0.05,,,0.24,Wunderground v.1.15,2013-01-10 16:50:00,
2013-01-10 09:00:00,35.5,35.2,30.13,SSE,160,1.0,1.0,99,0.04,,,0.24,Wunderground v.1.15,2013-01-10 17:00:00,
2013-01-10 09:10:00,35.7,35.4,30.13,West,277,0.0,0.0,99,0.00,,,0.24,Wunderground v.1.15,2013-01-10 17:10:00,
2013-01-10 09:20:00,35.9,35.9,30.14,ESE,117,0.0,0.0,100,0.00,,,0.25,Wunderground v.1.15,2013-01-10 17:20:00,
2013-01-10 09:30:00,35.9,35.9,30.14,SE,140,0.0,0.0,100,0.04,,,0.26,Wunderground v.1.15,2013-01-10 17:30:00,
2013-01-10 09:40:00,35.9,35.6,30.14,SSW,198,0.0,0.0,99,0.07,,,0.27,Wunderground v.1.15,2013-01-10 17:40:00,
2013-01-10 09:45:00,35.9,35.6,30.14,SSW,198,0.0,0.0,99,0.07,,,0.27,Wunderground v.1.15,2013-01-10 17:45:00,
2013-01-10 09:55:00,36.3,36.0,30.14,SE,138,0.0,1.0,99,0.00,,,0.27,Wunderground v.1.15,2013-01-10 17:55:00,
2013-01-10 10:00:00,36.4,36.4,30.14,SE,138,0.0,0.0,100,0.00,,,0.27,Wunderground v.1.15,2013-01-10 18:00:00,
2013-01-10 10:10:00,36.4,36.4,30.15,SW,235,0.0,0.0,100,0.00,,,0.27,Wunderground v.1.15,2013-01-10 18:10:00,
2013-01-10 10:20:00,36.5,36.5,30.16,NW,315,0.0,0.0,100,0.00,,,0.28,Wunderground v.1.15,2013-01-10 18:20:00,
2013-01-10 10:25:00,36.5,36.5,30.16,West,269,0.0,0.0,100,0.12,,,0.29,Wunderground v.1.15,2013-01-10 18:25:00,
2013-01-10 10:35:00,36.8,36.5,30.16,West,276,0.0,1.0,99,0.06,,,0.30,Wunderground v.1.15,2013-01-10 18:35:00,
2013-01-10 10:45:00,37.2,36.9,30.16,North,355,1.0,1.0,99,0.00,,,0.30,Wunderground v.1.15,2013-01-10 18:45:00,
2013-01-10 10:50:00,37.1,36.8,30.16,SE,134,1.0,2.0,99,0.00,,,0.31,Wunderground v.1.15,2013-01-10 18:50:00,
2013-01-10 11:00:00,37.1,36.8,30.15,SE,127,1.0,1.0,99,0.07,,,0.32,Wunderground v.1.15,2013-01-10 19:00:00,
2013-01-10 11:10:00,37.3,37.0,30.16,SSW,197,1.0,1.0,99,0.05,,,0.32,Wunderground v.1.15,2013-01-10 19:10:00,
2013-01-10 11:20:00,37.5,37.5,30.15,SE,126,0.0,1.0,100,0.04,,,0.33,Wunderground v.1.15,2013-01-10 19:20:00,
2013-01-10 11:25:00,37.7,37.7,30.15,SE,133,0.0,1.0,100,0.04,,,0.33,Wunderground v.1.15,2013-01-10 19:25:00,
2013-01-10 11:35:00,37.8,37.5,30.14,South,188,0.0,0.0,99,0.00,,,0.34,Wunderground v.1.15,2013-01-10 19:35:00,
2013-01-10 11:45:00,38.2,38.2,30.14,SW,227,0.0,1.0,100,0.00,,,0.34,Wunderground v.1.15,2013-01-10 19:45:00,
2013-01-10 11:50:00,38.7,38.7,30.14,SW,227,0.0,0.0,100,0.00,,,0.34,Wunderground v.1.15,2013-01-10 19:50:00,
2013-01-10 12:00:00,39.6,39.6,30.14,SSE,163,0.0,0.0,100,0.00,,,0.34,Wunderground v.1.15,2013-01-10 20:00:00,
2013-01-10 12:10:00,40.5,40.5,30.13,South,169,0.0,0.0,100,0.00,,,0.34,Wunderground v.1.15,2013-01-10 20:10:00,
2013-01-10 12:20:00,40.2,39.9,30.13,ESE,113,1.0,4.0,99,0.00,,,0.34,Wunderground v.1.15,2013-01-10 20:20:00,
2013-01-10 12:30:00,40.2,39.9,30.12,South,185,2.0,2.0,99,0.00,,,0.35,Wunderground v.1.15,2013-01-10 20:30:00,
2013-01-10 12:40:00,40.1,39.8,30.12,East,88,2.0,2.0,99,0.00,,,0.35,Wunderground v.1.15,2013-01-10 20:40:00,
2013-01-10 12:55:00,39.0,38.5,30.12,SE,138,2.0,4.0,98,0.27,,,0.38,Wunderground v.1.15,2013-01-10 20:55:00,
2013-01-10 13:00:00,38.8,38.3,30.12,SE,137,1.0,1.0,98,0.08,,,0.38,Wunderground v.1.15,2013-01-10 21:00:00,
2013-01-10 13:05:00,39.0,38.5,30.12,SE,137,0.0,1.0,98,0.05,,,0.38,Wunderground v.1.15,2013-01-10 21:05:00,
2013-01-10 13:15:00,39.7,39.4,30.12,NNE,22,0.0,0.0,99,0.00,,,0.38,Wunderground v.1.15,2013-01-10 21:15:00,
2013-01-10 13:25:00,39.8,39.3,30.12,NE,53,0.0,0.0,98,0.00,,,0.38,Wunderground v.1.15,2013-01-10 21:25:00,
2013-01-10 13:35:00,39.9,39.4,30.13,WNW,290,0.0,1.0,98,0.00,,,0.39,Wunderground v.1.15,2013-01-10 21:35:00,
2013-01-10 13:40:00,39.7,39.2,30.13,NNE,14,1.0,4.0,98,0.33,,,0.42,Wunderground v.1.15,2013-01-10 21:40:00,
2013-01-10 13:50:00,39.2,38.4,30.13,NNW,348,1.0,1.0,97,0.13,,,0.44,Wunderground v.1.15,2013-01-10 21:50:00,
2013-01-10 14:00:00,39.7,39.2,30.13,NW,321,0.0,0.0,98,0.04,,,0.44,Wunderground v.1.15,2013-01-10 22:00:00,
2013-01-10 14:10:00,40.2,39.7,30.13,NW,321,0.0,0.0,98,0.00,,,0.44,Wunderground v.1.15,2013-01-10 22:10:00,
2013-01-10 14:20:00,40.6,39.8,30.13,NW,315,0.0,0.0,97,0.00,,,0.44,Wunderground v.1.15,2013-01-10 22:20:00,
2013-01-10 14:30:00,41.5,41.0,30.12,NNW,343,0.0,0.0,98,0.00,,,0.44,Wunderground v.1.15,2013-01-10 22:30:00,
2013-01-10 14:40:00,41.5,40.7,30.14,NW,314,2.0,2.0,97,0.26,,,0.46,Wunderground v.1.15,2013-01-10 22:40:00,
2013-01-10 14:50:00,39.9,38.9,30.14,NW,313,1.0,1.0,96,0.07,,,0.47,Wunderground v.1.15,2013-01-10 22:50:00,
2013-01-10 14:55:00,39.6,38.8,30.14,North,355,1.0,1.0,97,0.07,,,0.47,Wunderground v.1.15,2013-01-10 22:55:00,
2013-01-10 15:00:00,39.5,38.7,30.14,North,11,0.0,0.0,97,0.06,,,0.48,Wunderground v.1.15,2013-01-10 23:00:00,
2013-01-10 15:10:00,39.4,38.6,30.14,North,11,0.0,0.0,97,0.04,,,0.48,Wunderground v.1.15,2013-01-10 23:10:00,
2013-01-10 15:15:00,39.5,39.0,30.14,SE,127,0.0,0.0,98,0.00,,,0.48,Wunderground v.1.15,2013-01-10 23:15:00,
2013-01-10 15:25:00,39.9,39.4,30.14,NW,314,2.0,11.0,98,0.00,,,0.48,Wunderground v.1.15,2013-01-10 23:25:00,
2013-01-10 15:35:00,40.5,39.4,30.14,WNW,301,4.0,4.0,96,0.20,,,0.50,Wunderground v.1.15,2013-01-10 23:35:00,
2013-01-10 15:45:00,40.4,39.6,30.15,NNW,344,4.0,4.0,97,0.05,,,0.50,Wunderground v.1.15,2013-01-10 23:45:00,
2013-01-10 15:50:00,40.4,39.9,30.15,WNW,290,3.0,3.0,98,0.00,,,0.50,Wunderground v.1.15,2013-01-10 23:50:00,
2013-01-10 15:55:00,40.4,39.6,30.15,East,101,3.0,3.0,97,0.00,,,0.50,Wunderground v.1.15,2013-01-10 23:55:00,
2013-01-10 16:00:00,40.2,39.4,30.15,NNW,348,2.0,2.0,97,0.00,,,0.50,Wunderground v.1.15,2013-01-11 00:00:00,
2013-01-10 16:10:00,40.0,39.5,30.15,West,270,0.0,0.0,98,0.00,,,0.50,Wunderground v.1.15,2013-01-11 00:10:00,
2013-01-10 16:20:00,39.7,39.2,30.15,West,263,0.0,1.0,98,0.00,,,0.50,Wunderground v.1.15,2013-01-11 00:20:00,
2013-01-10 16:30:00,39.7,39.2,30.16,South,175,1.0,1.0,98,0.00,,,0.50,Wunderground v.1.15,2013-01-11 00:30:00,
2013-01-10 16:40:00,40.2,39.4,30.16,West,273,4.0,4.0,97,0.00,,,0.51,Wunderground v.1.15,2013-01-11 00:40:00,
2013-01-10 16:45:00,40.0,39.0,30.15,SW,217,4.0,4.0,96,0.00,,,0.51,Wunderground v.1.15,2013-01-11 00:45:00,
2013-01-10 16:55:00,39.7,38.7,30.15,West,274,3.0,6.0,96,0.00,,,0.51,Wunderground v.1.15,2013-01-11 00:55:00,
2013-01-10 17:00:00,39.6,38.8,30.16,WNW,283,3.0,3.0,97,0.00,,,0.51,Wunderground v.1.15,2013-01-11 01:00:00,
2013-01-10 17:10:00,40.1,38.8,30.16,West,279,5.0,10.0,95,0.00,,,0.51,Wunderground v.1.15,2013-01-11 01:10:00,
2013-01-10 17:20:00,40.2,38.9,30.16,NNE,17,4.0,4.0,95,0.00,,,0.51,Wunderground v.1.15,2013-01-11 01:20:00,
2013-01-10 17:30:00,39.9,38.9,30.16,NW,318,2.0,2.0,96,0.00,,,0.51,Wunderground v.1.15,2013-01-11 01:30:00,
2013-01-10 17:35:00,39.7,38.7,30.17,North,355,3.0,3.0,96,0.00,,,0.52,Wunderground v.1.15,2013-01-11 01:35:00,
2013-01-10 17:45:00,39.7,38.7,30.16,NW,306,3.0,4.0,96,0.00,,,0.52,Wunderground v.1.15,2013-01-11 01:45:00,
2013-01-10 17:55:00,39.8,38.5,30.16,NW,310,4.0,4.0,95,0.00,,,0.52,Wunderground v.1.15,2013-01-11 01:55:00,
2013-01-10 18:00:00,39.7,38.4,30.16,NNE,13,3.0,3.0,95,0.00,,,0.52,Wunderground v.1.15,2013-01-11 02:00:00,
2013-01-10 18:10:00,39.7,38.4,30.16,West,279,3.0,3.0,95,0.00,,,0.52,Wunderground v.1.15,2013-01-11 02:10:00,
2013-01-10 18:20:00,39.3,38.0,30.17,NW,317,2.0,2.0,95,0.00,,,0.52,Wunderground v.1.15,2013-01-11 02:20:00,
2013-01-10 18:30:00,39.7,38.1,30.17,WNW,292,4.0,8.0,94,0.00,,,0.52,Wunderground v.1.15,2013-01-11 02:30:00,
2013-01-10 18:40:00,40.5,38.1,30.17,WSW,253,4.0,8.0,91,0.00,,,0.52,Wunderground v.1.15,2013-01-11 02:40:00,
2013-01-10 18:45:00,40.9,37.6,30.17,West,275,4.0,8.0,88,0.00,,,0.52,Wunderground v.1.15,2013-01-11 02:45:00,
2013-01-10 18:55:00,41.3,37.7,30.17,WNW,302,5.0,7.0,87,0.00,,,0.52,Wunderground v.1.15,2013-01-11 02:55:00,
2013-01-10 19:00:00,40.9,38.2,30.17,NW,313,5.0,5.0,90,0.00,,,0.52,Wunderground v.1.15,2013-01-11 03:00:00,
2013-01-10 19:10:00,40.5,38.4,30.17,WNW,293,4.0,8.0,92,0.00,,,0.52,Wunderground v.1.15,2013-01-11 03:10:00,
2013-01-10 19:20:00,40.1,38.2,30.18,SSW,209,2.0,2.0,93,0.00,,,0.52,Wunderground v.1.15,2013-01-11 03:20:00,
2013-01-10 19:25:00,40.0,38.1,30.18,WNW,296,1.0,3.0,93,0.00,,,0.52,Wunderground v.1.15,2013-01-11 03:25:00,
2013-01-10 19:35:00,39.5,37.9,30.18,North,355,0.0,1.0,94,0.00,,,0.52,Wunderground v.1.15,2013-01-11 03:35:00,
2013-01-10 19:45:00,39.2,37.6,30.17,South,188,0.0,1.0,94,0.00,,,0.52,Wunderground v.1.15,2013-01-11 03:45:00,
2013-01-10 19:55:00,39.3,37.2,30.17,NW,315,1.0,2.0,92,0.00,,,0.52,Wunderground v.1.15,2013-01-11 03:55:00,
2013-01-10 20:00:00,39.5,37.6,30.17,WNW,292,2.0,2.0,93,0.00,,,0.52,Wunderground v.1.15,2013-01-11 04:00:00,
2013-01-10 20:10:00,39.3,37.4,30.17,West,259,1.0,1.0,93,0.00,,,0.52,Wunderground v.1.15,2013-01-11 04:10:00,
2013-01-10 20:15:00,39.2,37.3,30.18,WNW,298,1.0,4.0,93,0.00,,,0.52,Wunderground v.1.15,2013-01-11 04:15:00,
2013-01-10 20:25:00,38.9,37.3,30.18,ENE,59,1.0,2.0,94,0.00,,,0.52,Wunderground v.1.15,2013-01-11 04:25:00,
2013-01-10 20:35:00,38.2,36.9,30.18,South,176,1.0,1.0,95,0.00,,,0.52,Wunderground v.1.15,2013-01-11 04:35:00,
2013-01-10 20:45:00,38.1,37.1,30.17,West,281,1.0,1.0,96,0.00,,,0.52,Wunderground v.1.15,2013-01-11 04:45:00,
2013-01-10 20:55:00,38.6,37.6,30.18,SW,232,2.0,2.0,96,0.00,,,0.52,Wunderground v.1.15,2013-01-11 04:55:00,
2013-01-10 21:05:00,38.9,37.6,30.18,NW,307,2.0,3.0,95,0.00,,,0.52,Wunderground v.1.15,2013-01-11 05:05:00,
2013-01-10 21:10:00,39.1,37.5,30.19,NNW,346,3.0,3.0,94,0.00,,,0.52,Wunderground v.1.15,2013-01-11 05:10:00,
2013-01-10 21:15:00,38.7,37.1,30.19,SSW,198,2.0,3.0,94,0.00,,,0.52,Wunderground v.1.15,2013-01-11 05:15:00,
2013-01-10 21:25:00,38.1,37.1,30.19,South,191,1.0,1.0,96,0.00,,,0.52,Wunderground v.1.15,2013-01-11 05:25:00,
2013-01-10 21:30:00,37.9,36.9,30.19,South,191,0.0,0.0,96,0.00,,,0.52,Wunderground v.1.15,2013-01-11 05:30:00,
2013-01-10 21:40:00,37.7,36.9,30.19,South,191,0.0,0.0,97,0.00,,,0.52,Wunderground v.1.15,2013-01-11 05:40:00,
2013-01-10 21:45:00,37.7,36.9,30.19,South,191,0.0,0.0,97,0.00,,,0.52,Wunderground v.1.15,2013-01-11 05:45:00,
2013-01-10 21:55:00,37.6,36.8,30.20,SE,138,1.0,2.0,97,0.00,,,0.52,Wunderground v.1.15,2013-01-11 05:55:00,
2013-01-10 22:00:00,37.5,36.7,30.20,SSE,164,0.0,2.0,97,0.00,,,0.52,Wunderground v.1.15,2013-01-11 06:00:00,
2013-01-10 22:10:00,37.4,36.6,30.20,SSE,168,0.0,0.0,97,0.00,,,0.52,Wunderground v.1.15,2013-01-11 06:10:00,
2013-01-10 22:20:00,37.2,36.4,30.20,SSE,168,0.0,0.0,97,0.00,,,0.52,Wunderground v.1.15,2013-01-11 06:20:00,
2013-01-10 22:30:00,37.0,36.2,30.20,SSE,168,0.0,0.0,97,0.00,,,0.52,Wunderground v.1.15,2013-01-11 06:30:00,
2013-01-10 22:40:00,36.9,36.1,30.19,SE,146,0.0,3.0,97,0.00,,,0.52,Wunderground v.1.15,2013-01-11 06:40:00,
2013-01-10 22:45:00,36.9,36.1,30.19,SE,141,1.0,3.0,97,0.00,,,0.52,Wunderground v.1.15,2013-01-11 06:45:00,
2013-01-10 22:55:00,37.0,36.5,30.19,SE,126,1.0,1.0,98,0.00,,,0.52,Wunderground v.1.15,2013-01-11 06:55:00,
2013-01-10 23:00:00,36.9,36.1,30.20,NNW,344,1.0,1.0,97,0.00,,,0.52,Wunderground v.1.15,2013-01-11 07:00:00,
2013-01-10 23:10:00,36.8,36.0,30.21,NNW,332,1.0,1.0,97,0.00,,,0.52,Wunderground v.1.15,2013-01-11 07:10:00,
2013-01-10 23:20:00,36.8,36.0,30.20,SW,220,0.0,0.0,97,0.00,,,0.53,Wunderground v.1.15,2013-01-11 07:20:00,
2013-01-10 23:30:00,36.7,36.2,30.21,WNW,287,1.0,1.0,98,0.06,,,0.54,Wunderground v.1.15,2013-01-11 07:30:00,
2013-01-10 23:35:00,36.7,36.2,30.20,South,182,1.0,1.0,98,0.04,,,0.54,Wunderground v.1.15,2013-01-11 07:35:00,
2013-01-10 23:45:00,36.7,36.2,30.20,SSE,150,0.0,1.0,98,0.00,,,0.54,Wunderground v.1.15,2013-01-11 07:45:00,
2013-01-10 23:55:00,36.8,36.3,30.19,SSE,150,0.0,1.0,98,0.00,,,0.54,Wunderground v.1.15,2013-01-11 07:55:00,